Wind_Speed
3 3 2 2 1 1 1 2 2 1 2 3 4 4 4 4 4 3 3 3 4 4 3 3 4 4 4 4 4 3 3 3 3 3 3 4 5 5 5 4 6 6 6
3 3 3 3 2 2 2 2 3 3 3 4 4 4 4 4 4 4 4 4 5 4 5 5 5 4 4 4 4 5 5 5 4 4 4 5 5 5 6 6 6 7 7
4 4 4 4 3 3 3 3 3 4 4 4 5 5 5 5 5 5 5 5 6 6 6 6 6 5 6 6 6 6 6 6 6 6 6 6 6 7 7 7 7 8 8
4 4 5 4 4 4 4 4 5 5 5 5 5 5 5 6 6 6 6 6 6 6 6 7 7 7 7 7 8 8 8 8 8 8 8 8 8 9 9 9 8 9 9
5 5 5 5 5 5 5 5 5 5 5 6 5 6 5 6 6 6 6 6 7 7 7 7 8 8 8 8 8 9 9 9 9 10 10 10 10 10 11 11 10 10 10
5 5 5 5 5 6 6 6 6 6 6 6 6 5 5 5 6 6 7 7 7 8 8 8 9 9 9 9 9 10 10 10 10 10 11 11 11 12 12 13 12 12 12
6 5 6 6 6 6 6 7 7 7 7 6 7 7 7 7 6 6 7 7 7 8 8 9 10 10 10 10 10 10 10 11 10 11 11 12 12 12 13 13 13 13 13
7 7 6 6 7 7 7 6 7 7 7 7 7 8 8 8 8 8 8 9 9 8 8 9 9 9 10 10 11 11 11 11 11 12 12 13 13 13 13 14 14 14 14
8 8 7 7 7 7 8 8 8 8 8 8 8 8 8 9 9 9 9 9 9 9 9 10 10 10 10 11 11 11 11 12 12 12 13 14 14 14 14 14 14 15 15
8 8 8 8 9 8 8 8 8 9 9 9 9 9 9 9 8 8 9 9 9 10 10 10 11 11 11 12 12 12 12 13 13 13 13 13 14 14 14 14 14 15 15
9 8 8 8 9 9 9 9 9 9 9 10 10 9 9 9 9 9 9 9 10 10 11 11 11 11 11 11 11 12 12 13 13 14 14 14 14 14 14 15 15 15 15
9 9 8 8 8 9 9 9 9 10 10 9 9 9 9 9 9 10 10 10 10 11 11 11 12 11 11 11 11 12 12 13 13 13 13 14 14 14 15 15 15 15 15
10 10 10 9 8 8 9 9 9 9 9 9 9 9 9 9 9 9 9 10 10 10 11 11 11 11 11 11 12 12 13 13 14 14 14 14 15 15 16 16 16 16 16
10 10 10 10 9 9 9 10 9 9 9 9 9 9 9 9 9 10 10 10 10 10 11 11 11 11 12 12 12 12 13 14 14 15 15 15 15 15 16 16 15 15 15
11 11 10 10 10 10 10 10 10 10 9 9 9 8 9 9 10 11 11 11 11 11 11 11 11 12 12 12 13 13 13 13 13 14 15 15 14 15 15 15 15 15 15
11 11 10 10 10 10 10 10 10 10 9 9 9 9 9 10 10 11 11 11 11 11 12 12 12 12 12 12 13 13 13 13 14 14 14 15 15 14 15 15 15 15 15
11 11 11 11 11 11 11 11 10 10 10 9 10 9 9 9 10 10 11 11 11 11 11 12 11 11 12 12 13 13 14 14 15 15 15 16 16 15 15 15 15 15 16
11 12 12 12 12 11 11 11 10 10 11 10 10 10 10 10 10 10 10 11 11 11 11 11 12 12 12 12 13 13 14 14 15 15 15 16 16 16 16 16 16 16 16
11 12 12 12 12 12 11 11 10 11 11 11 10 10 10 11 11 11 11 11 11 12 11 12 12 13 12 13 13 13 14 14 15 15 15 16 16 16 17 17 17 17 17
12 12 13 12 12 12 12 11 11 11 12 12 12 11 11 12 12 11 11 11 12 12 13 12 13 13 13 13 14 14 14 15 16 16 17 17 17 18 18 18 18 18 18
13 13 14 13 12 12 12 12 12 12 12 12 12 12 12 12 12 12 12 12 12 12 12 12 13 13 13 14 14 14 15 16 17 17 18 18 18 19 19 19 18 18 18
14 14 14 13 13 13 13 13 13 13 13 13 13 13 12 12 12 12 12 13 12 12 12 13 13 13 13 13 13 14 15 16 17 17 17 18 18 18 19 19 19 18 18
15 15 14 14 13 14 14 14 15 15 15 14 14 13 13 13 13 13 12 13 12 13 13 13 13 13 13 13 14 14 15 16 16 16 17 18 18 18 18 18 19 19 19
17 16 15 14 14 14 14 15 16 15 15 15 14 14 14 14 14 13 13 13 13 13 13 13 13 13 13 14 14 14 15 16 15 15 16 17 18 18 18 18 18 19 19
17 17 16 16 16 16 16 16 16 16 15 15 15 15 15 14 14 14 14 14 14 13 13 13 13 13 14 14 14 14 15 15 15 15 15 16 17 17 18 18 19 19 19
18 18 18 17 17 17 17 17 16 16 16 15 15 16 16 16 15 14 14 14 14 14 14 14 14 14 14 14 15 15 15 15 15 15 16 16 17 17 18 19 19 19 20
Wind_Direction
192 183 184 197 183 198 252 253 250 213 201 202 192 190 189 197 203 207 204 200 204 204 206 208 212 224 227 227 222 221 224 224 215 217 216 215 214 214 219 224 232 237 234
204 203 211 223 223 228 236 250 254 224 205 206 207 204 206 217 219 222 225 223 221 225 227 225 232 232 232 234 234 233 232 232 236 236 233 234 230 231 230 232 236 240 238
213 211 218 232 236 239 247 253 246 229 216 220 222 224 224 226 230 237 241 236 232 234 233 235 241 240 242 239 236 235 237 242 245 243 246 243 244 246 239 239 241 245 244
217 221 220 234 241 248 254 252 238 236 226 222 228 235 233 232 233 238 241 237 237 239 240 237 242 245 242 242 241 241 243 245 248 249 248 248 249 248 243 243 246 250 248
226 227 225 236 242 248 252 254 246 248 231 222 226 232 236 237 240 241 243 246 244 245 248 244 246 247 248 249 247 245 248 250 252 250 250 250 251 250 247 244 246 250 253
230 231 231 237 244 248 250 252 254 252 248 244 235 238 245 247 245 242 246 250 250 247 251 252 251 250 250 251 250 251 251 254 254 252 251 251 252 253 251 249 246 248 252
239 238 240 246 248 245 247 248 254 255 255 252 247 250 252 254 252 251 252 252 251 252 254 253 255 254 254 254 254 253 251 253 255 253 253 254 252 253 254 253 250 250 253
249 248 247 251 251 249 250 253 256 258 260 258 255 255 255 257 257 254 256 256 256 255 256 257 257 257 257 256 255 255 254 255 254 253 252 254 255 256 256 256 252 251 252
251 255 252 254 257 255 253 256 257 260 262 261 262 262 261 260 258 257 259 260 259 260 259 258 259 259 256 257 256 255 255 255 253 254 255 255 254 254 254 254 253 253 254
251 252 253 253 257 259 260 260 262 263 261 259 260 260 259 260 262 262 261 260 260 263 262 262 263 262 259 258 258 257 256 255 254 253 255 255 254 253 255 257 255 255 254
252 251 253 255 254 258 260 264 267 266 264 263 263 264 261 260 261 262 264 263 265 265 265 265 265 265 262 260 258 259 258 257 257 256 256 256 255 254 254 256 256 255 254
251 250 251 254 255 259 259 262 266 268 268 266 264 264 261 260 260 261 263 263 265 266 267 266 265 265 262 260 260 259 259 258 258 258 257 258 256 256 255 255 255 254 254
254 256 257 260 259 262 263 263 264 265 266 264 262 261 260 260 262 264 265 265 266 267 267 266 266 266 265 262 260 260 261 260 257 259 259 259 260 258 255 255 256 255 255
255 259 261 264 265 265 267 268 266 265 265 262 261 260 260 263 265 266 265 267 266 268 268 268 268 268 268 266 264 263 262 259 257 258 258 259 259 259 256 253 255 255 254
257 258 262 263 264 263 268 271 267 265 264 262 259 259 262 263 265 265 265 265 266 268 269 269 269 269 270 267 266 264 262 258 257 259 257 258 258 257 257 258 256 255 255
258 258 261 261 263 265 265 265 267 265 263 262 259 259 262 265 266 265 264 263 265 267 270 271 270 269 266 262 262 263 263 259 260 260 258 258 258 257 256 258 258 257 256
257 259 262 262 261 264 264 265 267 267 266 264 260 261 259 265 268 266 264 265 265 266 269 271 270 269 267 264 263 263 262 260 259 261 262 258 257 258 258 258 259 259 256
260 260 262 262 261 263 263 264 264 266 266 264 262 259 261 267 271 269 266 267 266 267 269 272 272 271 270 268 265 264 264 263 263 264 263 260 260 260 259 258 257 258 259
262 264 263 263 262 261 259 260 262 267 269 267 266 262 262 268 272 270 271 271 269 269 269 272 273 271 270 270 268 266 269 268 263 263 264 265 265 264 262 260 258 257 258
265 266 267 265 261 258 256 258 261 263 265 266 266 265 266 270 272 271 272 273 272 272 271 274 274 271 272 272 271 271 275 273 266 268 266 266 266 263 261 260 260 257 257
263 265 266 266 261 257 259 260 262 264 264 265 266 267 268 271 273 274 274 273 272 272 273 274 276 275 276 273 271 273 276 274 271 269 268 267 266 264 260 259 258 258 259
263 265 265 264 262 261 260 261 264 265 264 263 266 268 270 271 273 275 275 273 273 276 275 275 277 276 281 279 277 276 275 275 275 271 269 267 267 265 262 259 258 258 258
264 266 264 263 264 265 263 264 266 267 265 264 266 268 269 271 273 272 274 274 275 277 278 277 277 279 281 282 282 281 278 277 276 272 272 271 270 268 265 262 259 258 258
263 265 264 262 262 265 266 268 267 266 264 262 263 265 268 270 272 272 273 274 275 276 278 280 280 281 282 284 285 284 282 282 281 276 274 271 271 269 266 263 261 260 259
261 261 262 261 261 263 265 266 266 263 262 260 260 263 266 269 273 274 273 272 274 276 277 281 283 285 284 283 283 283 282 282 283 281 280 278 274 271 267 264 262 262 262
260 261 263 264 262 262 264 264 265 263 262 261 260 262 264 267 270 272 273 274 274 276 277 280 284 285 283 283 284 285 284 283 281 281 282 283 279 274 270 264 262 262 261
Height
5874 5873 5873 5873 5873 5873 5872 5872 5872 5871 5871 5871 5871 5872 5872 5872 5873 5873 5873 5874 5874 5874 5874 5874 5874 5874 5874 5874 5874 5874 5875 5875 5875 5875 5875 5875 5876 5876 5876 5876 5876 5877 5877
5873 5873 5873 5873 5872 5872 5872 5872 5872 5871 5871 5871 5871 5871 5872 5872 5872 5872 5873 5873 5873 5873 5873 5873 5874 5874 5874 5874 5874 5874 5874 5874 5875 5875 5875 5875 5875 5875 5875 5875 5875 5876 5876
5872 5872 5872 5872 5872 5872 5872 5871 5871 5870 5870 5870 5870 5871 5871 5871 5871 5872 5872 5872 5872 5872 5872 5872 5873 5873 5873 5873 5873 5873 5873 5874 5874 5874 5874 5874 5874 5875 5875 5875 5875 5875 5875
5871 5871 5871 5871 5871 5871 5871 5871 5870 5869 5869 5869 5870 5870 5870 5870 5870 5870 5870 5871 5871 5871 5871 5871 5871 5872 5872 5872 5872 5872 5872 5873 5873 5873 5873 5873 5873 5873 5874 5874 5874 5874 5874
5870 5870 5870 5870 5870 5870 5870 5870 5869 5869 5868 5868 5868 5869 5869 5869 5869 5869 5869 5869 5870 5869 5869 5870 5870 5870 5871 5871 5871 5871 5871 5871 5872 5872 5872 5872 5872 5872 5872 5872 5872 5872 5873
5869 5869 5869 5869 5869 5869 5869 5869 5868 5868 5868 5868 5868 5868 5868 5868 5868 5868 5868 5868 5868 5868 5868 5868 5869 5869 5869 5869 5869 5870 5870 5870 5870 5870 5870 5870 5870 5870 5871 5871 5871 5871 5871
5868 5868 5868 5868 5868 5868 5867 5867 5867 5867 5867 5867 5866 5867 5867 5867 5867 5867 5867 5867 5867 5867 5867 5867 5867 5867 5867 5867 5868 5868 5868 5868 5868 5868 5868 5868 5868 5868 5869 5869 5869 5869 5869
5866 5866 5867 5867 5866 5866 5866 5866 5866 5865 5865 5865 5865 5865 5865 5865 5865 5865 5865 5865 5865 5865 5865 5865 5865 5865 5865 5865 5865 5866 5866 5866 5866 5866 5866 5866 5866 5866 5866 5867 5867 5867 5867
5865 5865 5865 5865 5865 5865 5865 5864 5864 5864 5864 5864 5864 5863 5863 5863 5863 5863 5863 5863 5863 5863 5864 5863 5863 5863 5863 5863 5863 5863 5863 5863 5864 5863 5864 5863 5864 5864 5864 5864 5864 5864 5865
5863 5864 5864 5864 5864 5863 5863 5863 5863 5862 5862 5862 5862 5862 5862 5862 5861 5861 5862 5862 5862 5861 5861 5861 5861 5861 5861 5861 5861 5861 5861 5861 5861 5861 5861 5861 5861 5861 5861 5862 5862 5862 5862
5862 5862 5862 5862 5862 5861 5861 5861 5861 5860 5860 5860 5860 5860 5860 5860 5859 5859 5860 5860 5860 5859 5859 5859 5859 5859 5859 5858 5858 5858 5858 5858 5858 5858 5858 5858 5858 5859 5859 5859 5859 5859 5859
5860 5860 5860 5860 5860 5860 5859 5859 5859 5858 5858 5858 5858 5858 5858 5858 5857 5858 5858 5857 5857 5857 5857 5857 5856 5856 5856 5856 5856 5856 5856 5855 5855 5856 5856 5856 5856 5856 5855 5856 5856 5856 5856
5858 5858 5858 5858 5858 5858 5858 5857 5857 5856 5856 5856 5856 5856 5856 5856 5856 5855 5855 5855 5855 5855 5854 5854 5853 5853 5853 5853 5853 5853 5853 5853 5853 5853 5853 5853 5853 5853 5852 5852 5853 5853 5853
5856 5856 5856 5856 5856 5856 5856 5855 5855 5855 5854 5854 5854 5854 5854 5854 5854 5853 5853 5853 5853 5852 5852 5851 5851 5851 5850 5850 5850 5850 5850 5850 5849 5849 5850 5850 5849 5849 5849 5849 5849 5849 5850
5854 5854 5854 5854 5854 5854 5853 5853 5853 5852 5852 5852 5852 5852 5852 5852 5851 5851 5851 5850 5850 5850 5849 5849 5849 5848 5848 5847 5847 5847 5847 5847 5846 5846 5846 5846 5846 5846 5846 5846 5846 5846 5847
5851 5851 5851 5852 5852 5852 5851 5851 5851 5850 5850 5850 5850 5850 5849 5849 5849 5849 5848 5848 5848 5847 5847 5846 5846 5845 5845 5844 5844 5844 5844 5844 5843 5843 5843 5843 5843 5842 5843 5843 5843 5843 5844
5849 5849 5849 5849 5849 5849 5849 5849 5848 5848 5848 5848 5847 5847 5847 5847 5847 5846 5846 5845 5845 5844 5844 5843 5843 5842 5842 5842 5841 5841 5841 5840 5840 5840 5839 5839 5839 5839 5839 5840 5840 5840 5840
5846 5846 5847 5847 5847 5847 5846 5846 5846 5846 5846 5845 5845 5845 5844 5844 5844 5844 5843 5843 5842 5842 5841 5841 5840 5839 5839 5838 5838 5838 5837 5837 5837 5836 5836 5836 5836 5836 5836 5836 5836 5837 5837
5844 5844 5844 5844 5844 5844 5844 5843 5844 5844 5843 5843 5843 5842 5842 5842 5841 5841 5840 5840 5839 5839 5838 5838 5837 5836 5836 5835 5835 5834 5834 5833 5833 5833 5833 5832 5832 5832 5832 5832 5833 5833 5833
5841 5841 5841 5841 5841 5841 5841 5841 5841 5841 5841 5840 5840 5840 5839 5839 5838 5838 5838 5837 5836 5836 5835 5835 5834 5833 5833 5832 5832 5831 5830 5830 5829 5829 5829 5828 5828 5828 5828 5828 5829 5829 5829
5838 5838 5838 5838 5838 5838 5838 5838 5838 5838 5838 5838 5837 5837 5836 5836 5835 5835 5835 5834 5834 5833 5832 5831 5831 5830 5829 5828 5828 5827 5827 5826 5825 5825 5824 5824 5824 5824 5823 5824 5824 5825 5825
5835 5834 5834 5835 5835 5835 5835 5835 5835 5835 5835 5835 5834 5834 5833 5833 5832 5832 5831 5831 5830 5830 5829 5828 5827 5827 5826 5825 5824 5824 5823 5823 5821 5820 5820 5820 5819 5819 5819 5819 5819 5820 5820
5831 5831 5831 5831 5831 5831 5832 5832 5832 5832 5832 5832 5831 5831 5830 5830 5829 5829 5828 5827 5827 5826 5826 5825 5824 5823 5822 5822 5821 5820 5819 5818 5817 5817 5815 5815 5814 5814 5814 5814 5815 5815 5815
5827 5827 5827 5828 5828 5828 5828 5828 5828 5828 5828 5828 5828 5827 5827 5827 5826 5825 5825 5824 5823 5823 5822 5821 5821 5820 5819 5818 5817 5816 5815 5814 5813 5812 5812 5811 5810 5809 5809 5809 5809 5810 5810
5823 5823 5823 5824 5824 5824 5824 5824 5824 5824 5824 5824 5824 5824 5824 5823 5823 5822 5821 5821 5820 5819 5819 5818 5817 5816 5815 5814 5813 5812 5811 5810 5809 5808 5807 5806 5805 5804 5804 5804 5804 5804 5805
5819 5819 5819 5819 5820 5820 5820 5820 5820 5820 5820 5820 5820 5820 5820 5819 5819 5818 5818 5817 5816 5816 5815 5814 5813 5812 5811 5810 5809 5808 5807 5806 5805 5804 5803 5802 5800 5799 5798 5798 5799 5799 5799